Location: Newark
(7.0667°N, 171.2667°E)
Time: 08:12:39
(UTC+00:00)

Hubble Space Telescope - Visible Passes

Search period start: 01 October 2020 00:00
Search period end: 11 October 2020 00:00
Orbit: 536 x 540 km, 28.5° (Epoch: 30 September)

Date Brightness Start Highest point End Pass type
(mag) Time Alt. Az. Time Alt. Az. Time Alt. Az.
04 Oct 3.5 17:30:41 10° N 17:31:28 10° NNE 17:32:15 10° NNE visible
05 Oct 3.3 17:18:49 10° N 17:20:52 13° NNE 17:22:55 10° NE visible
06 Oct 3.0 06:57:09 10° S 06:58:53 12° SSE 07:00:39 10° SE visible
06 Oct 3.7 08:35:53 10° SW 08:36:26 13° SW 08:36:26 13° SW visible
06 Oct 3.1 17:07:55 12° NNW 17:10:14 17° NNE 17:13:00 10° ENE visible
07 Oct 2.6 06:45:26 10° SSW 06:48:11 17° SSE 06:50:56 10° ESE visible
07 Oct 3.1 08:25:09 10° WSW 08:26:44 22° WSW 08:26:44 22° WSW visible
07 Oct 2.7 16:58:09 19° N 16:59:35 22° NNE 17:02:50 10° ENE visible
08 Oct 2.4 08:14:32 10° WSW 08:17:01 33° W 08:17:01 33° W visible
08 Oct 2.2 16:48:24 28° NNE 16:48:54 29° NNE 16:52:32 10° E visible
09 Oct 2.0 08:03:59 10° W 08:07:17 36° NW 08:07:17 36° NW visible
09 Oct 1.9 16:38:41 38° NE 16:38:41 38° NE 16:42:05 10° E visible
10 Oct 2.2 07:53:34 10° W 07:57:09 28° NNW 07:57:31 28° NNW visible
10 Oct 2.3 16:28:59 34° E 16:28:59 34° E 16:31:33 10° ESE visible
